Weather History for Corvallis, OR

Change the Weather History Date:

Monday, June 9, 2014

  Actual Average Record
Temperature  
Mean Temperature 64 °F -  
Max Temperature 78 °F 71 °F 82 °F (1997)
Min Temperature 51 °F 48 °F 37 °F (1999)
Growing Degree Days 14 (Base 50)    
Moisture  
Dew Point 50 °F    
Average Humidity 64    
Maximum Humidity 94    
Minimum Humidity 34    
Precipitation  
Precipitation 0.00 in - - ()
Sea Level Pressure  
Sea Level Pressure 30.11 in    
Wind  
Wind Speed 10 mph (NNW)    
Max Wind Speed 15 mph    
Max Gust Speed 22 mph    
Visibility 10 miles    
Events      
Averages and records for this station are not official NWS values.
T = Trace of Precipitation, MM = Missing Value Source: NWS Daily Summary

Daily Weather History Graph

Daily Weather History Graph

Search for Another Location

Airport:

Trip Planner

Search our weather history database for the weather conditions in past years. The results will help you decide how hot, cold, wet, or windy it might be!

Date:

Astronomy

Jun. 09, 2014 Rise Set
Actual Time 5:28 AM PDT 8:56 PM PDT
Civil Twilight 4:51 AM PDT 9:33 PM PDT
Nautical Twilight 4:04 AM PDT 10:21 PM PDT
Astronomical Twilight 3:02 AM PDT 11:22 PM PDT
Moon 5:16 PM PDT (6/9) 3:07 AM PDT (6/9)
Length of Visible Light 16h 41m
Length of Day
15h 28m
Waxing Gibbous, 86% of the Moon is Illuminated
Jun 9
Waxing Gibbous
Jun 12
Full
Jun 19
Last Quarter
Jun 27
New
Jul 5
First Quarter

Hourly Weather History & Observations

Time (PDT) Temp. Dew Point Humidity Pressure Visibility Wind Dir Wind Speed Gust Speed Precip Events Conditions
12:15 AM 57.2 °F 50.0 °F 77% 30.11 in 10.0 mi NW 15.0 mph 19.6 mph N/A   Clear
12:35 AM 57.2 °F 50.0 °F 77% 30.11 in 10.0 mi NW 13.8 mph - N/A   Clear
12:55 AM 55.4 °F 50.0 °F 82% 30.12 in 10.0 mi NW 11.5 mph - N/A   Clear
1:15 AM 55.4 °F 50.0 °F 82% 30.12 in 10.0 mi NW 9.2 mph - N/A   Clear
1:55 AM 55.4 °F 50.0 °F 82% 30.13 in 10.0 mi NW 10.4 mph - N/A   Partly Cloudy
2:15 AM 55.4 °F 50.0 °F 82% 30.13 in 10.0 mi NW 8.1 mph - N/A   Scattered Clouds
2:35 AM 55.4 °F 50.0 °F 82% 30.14 in 10.0 mi NNW 4.6 mph - N/A   Clear
2:55 AM 55.4 °F 50.0 °F 82% 30.14 in 10.0 mi NNW 5.8 mph - N/A   Clear
3:15 AM 53.6 °F 50.0 °F 88% 30.14 in 10.0 mi NNW 4.6 mph - N/A   Clear
3:35 AM 53.6 °F 48.2 °F 82% 30.14 in 10.0 mi NW 4.6 mph - N/A   Clear
3:55 AM 53.6 °F 48.2 °F 82% 30.15 in 10.0 mi WNW 5.8 mph - N/A   Clear
4:15 AM 53.6 °F 50.0 °F 88% 30.15 in 10.0 mi NW 4.6 mph - N/A   Clear
4:35 AM 53.6 °F 48.2 °F 82% 30.15 in 10.0 mi NW 6.9 mph - N/A   Clear
4:55 AM 51.8 °F 48.2 °F 88% 30.14 in 10.0 mi WNW 5.8 mph - N/A   Clear
5:15 AM 51.8 °F 48.2 °F 88% 30.15 in 10.0 mi NW 6.9 mph - N/A   Clear
5:35 AM 51.8 °F 48.2 °F 88% 30.16 in 10.0 mi NW 4.6 mph - N/A   Clear
5:55 AM 51.8 °F 48.2 °F 88% 30.15 in 10.0 mi NW 4.6 mph - N/A   Clear
6:15 AM 51.8 °F 50.0 °F 94% 30.16 in 10.0 mi NW 5.8 mph - N/A   Clear
6:35 AM 53.6 °F 50.0 °F 88% 30.16 in 10.0 mi NW 5.8 mph - N/A   Clear
6:55 AM 53.6 °F 51.8 °F 94% 30.16 in 10.0 mi NW 6.9 mph - N/A   Clear
7:15 AM 55.4 °F 51.8 °F 88% 30.17 in 10.0 mi NW 8.1 mph - N/A   Clear
7:35 AM 55.4 °F 51.8 °F 88% 30.16 in - NW 6.9 mph - N/A   Unknown
8:15 AM 60.8 °F 51.8 °F 72% 30.16 in - NNW 4.6 mph - N/A   Clear
8:35 AM 62.6 °F 51.8 °F 68% 30.15 in - NE 9.2 mph - N/A   Clear
8:55 AM 62.6 °F 51.8 °F 68% 30.15 in 10.0 mi NE 9.2 mph - N/A   Clear
9:35 AM 64.4 °F 51.8 °F 64% 30.16 in 10.0 mi North 9.2 mph - N/A   Clear
9:55 AM 64.4 °F 51.8 °F 64% 30.15 in 10.0 mi NNE 11.5 mph 16.1 mph N/A   Scattered Clouds
10:15 AM 66.2 °F 51.8 °F 60% 30.16 in 10.0 mi NNE 11.5 mph - N/A   Scattered Clouds
10:35 AM 66.2 °F 51.8 °F 60% 30.15 in 10.0 mi NE 15.0 mph - N/A   Scattered Clouds
10:55 AM 66.2 °F 51.8 °F 60% 30.15 in 10.0 mi NE 11.5 mph 18.4 mph N/A   Clear
11:15 AM 66.2 °F 51.8 °F 60% 30.15 in 10.0 mi NNE 10.4 mph - N/A   Clear
11:35 AM 68.0 °F 50.0 °F 52% 30.14 in 10.0 mi NE 13.8 mph - N/A   Clear
1:15 PM 71.6 °F 51.8 °F 50% 30.13 in 10.0 mi NE 11.5 mph - N/A   Clear
1:35 PM 73.4 °F 51.8 °F 47% 30.12 in 10.0 mi NNE 6.9 mph - N/A   Clear
1:55 PM 73.4 °F 51.8 °F 47% 30.11 in 10.0 mi ENE 11.5 mph 18.4 mph N/A   Clear
2:15 PM 75.2 °F 51.8 °F 44% 30.11 in 10.0 mi ENE 10.4 mph 16.1 mph N/A   Clear
2:35 PM 75.2 °F 48.2 °F 38% 30.10 in 10.0 mi NNE 8.1 mph 17.3 mph N/A   Clear
2:55 PM 75.2 °F 44.6 °F 34% 30.10 in 10.0 mi NNE 10.4 mph - N/A   Clear
3:15 PM 77.0 °F 48.2 °F 36% 30.09 in 10.0 mi NE 12.7 mph - N/A   Clear
3:35 PM 78.8 °F 48.2 °F 34% 30.08 in 10.0 mi ENE 13.8 mph 19.6 mph N/A   Clear
3:55 PM 78.8 °F 48.2 °F 34% 30.08 in 10.0 mi NNE 9.2 mph - N/A   Clear
4:15 PM 78.8 °F 48.2 °F 34% 30.07 in 10.0 mi North 8.1 mph - N/A   Clear
4:35 PM 77.0 °F 48.2 °F 36% 30.08 in 10.0 mi Calm Calm - N/A   Clear
4:55 PM 77.0 °F 53.6 °F 44% 30.07 in 10.0 mi NW 12.7 mph 17.3 mph N/A   Mostly Cloudy
5:15 PM 75.2 °F 53.6 °F 47% 30.07 in 10.0 mi WNW 10.4 mph - N/A   Scattered Clouds
5:35 PM 75.2 °F 51.8 °F 44% 30.06 in 10.0 mi NW 13.8 mph - N/A   Clear
5:55 PM 75.2 °F 51.8 °F 44% 30.06 in 10.0 mi NW 12.7 mph - N/A   Clear
6:15 PM 75.2 °F 51.8 °F 44% 30.06 in 10.0 mi NW 11.5 mph - N/A   Clear
6:35 PM 73.4 °F 51.8 °F 47% 30.06 in 10.0 mi NNW 13.8 mph - N/A   Clear
6:55 PM 73.4 °F 51.8 °F 47% 30.06 in 10.0 mi NNW 11.5 mph - N/A   Clear
7:15 PM 71.6 °F 50.0 °F 46% 30.06 in 10.0 mi NW 12.7 mph - N/A   Clear
7:35 PM 69.8 °F 48.2 °F 46% 30.06 in 10.0 mi NW 11.5 mph - N/A   Clear
7:55 PM 68.0 °F 48.2 °F 49% 30.06 in 10.0 mi NW 11.5 mph - N/A   Clear
8:15 PM 66.2 °F 46.4 °F 49% 30.06 in 10.0 mi NW 10.4 mph - N/A   Clear
8:35 PM 64.4 °F 46.4 °F 52% 30.06 in 10.0 mi NW 12.7 mph - N/A   Clear
8:55 PM 62.6 °F 46.4 °F 55% 30.06 in 10.0 mi NW 15.0 mph - N/A   Clear
9:15 PM 60.8 °F 46.4 °F 59% 30.07 in 10.0 mi NW 13.8 mph - N/A   Clear
9:35 PM 60.8 °F 46.4 °F 59% 30.07 in 10.0 mi NW 13.8 mph 19.6 mph N/A   Clear
9:55 PM 59.0 °F 46.4 °F 63% 30.08 in 10.0 mi NW 15.0 mph 21.9 mph N/A   Clear
10:15 PM 57.2 °F 46.4 °F 67% 30.09 in - NW 13.8 mph 19.6 mph N/A   Clear
10:35 PM 57.2 °F 46.4 °F 67% 30.10 in - NW 11.5 mph 18.4 mph N/A   Clear
10:55 PM 57.2 °F 46.4 °F 67% 30.10 in - NW 11.5 mph - N/A   Clear
11:15 PM 55.4 °F 46.4 °F 72% 30.10 in - WNW 10.4 mph - N/A   Clear
11:35 PM 55.4 °F 46.4 °F 72% 30.10 in - WNW 10.4 mph - N/A   Clear
11:55 PM 53.6 °F 46.4 °F 77% 30.10 in - WNW 5.8 mph - N/A   Clear